Tracking 27112 objects as of 28-Mar-2023
HD Live streaming from Space Station
objects crossing your sky now

STARLINK-3928

Track STARLINK-3928 now!
10-day predictions
STARLINK-3928 is classified as:


NORAD ID: 52606
Int'l Code: 2022-052J
Perigee: 545.9 km
Apogee: 547.7 km
Inclination: 53.2 °
Period: 95.4 minutes
Semi major axis: 6917 km
RCS: Unknown
Launch date: May 14, 2022
Source: United States (US)
Launch site: AIR FORCE EASTERN TEST RANGE (AFETR)
Your satellite tracking list
Your tracking list is empty




NASA's NSSDC Master Catalog

Two Line Element Set (TLE):
1 52606U 22052J   23086.26376709  .00020683  00000-0  13124-2 0  9991
2 52606  53.2157  80.3600 0001316  94.5008 265.6134 15.08878615 48051
Source of the keplerian elements: AFSPC